sat.trackr.live / text

‹ back to catalog

STARLINK-1321

NORAD 45573 · 2020-025AU

PAYLOAD ACTIVE UNKNOWN

§ Identity

Operator
Country
US
Launch date
2020-04-22
Launch site
AFETR
Launch vehicle
Mass (kg)
RCS (m²)

Purposes: comms

External: N2YO · Heavens-Above · Gunter

§ Orbital elements

Epoch: 2026-05-25T02:43:21.081216Z

Period
92.27 min
Inclination
53.0433°
Eccentricity
0.0004829
Mean motion
15.60623268 rev/d
Perigee alt
382.6 km
Apogee alt
389.1 km
Semi-major
6,764.0 km
B*
9.9272e-4
RAAN
48.9740°
Arg perigee
82.8397°
Mean anomaly
277.3164°
Rev number
33,735

§ Raw data

STARLINK-13211 45573U 20025AU  26145.11343844  .00084084  00000+0  99272-3 0  99942 45573  53.0433  48.9740 0004829  82.8397 277.3164 15.60623268337356

JSON: /api/v1/satellites/45573 · /tle

For live sub-satellite position, see the globe view (requires WebGL).

§ Visibility from observer

Set your observer location to see the next 7 days of passes ≥ 10°. The values pass through the URL so the page stays shareable.

No JS? Fill the form by hand. The geolocation button needs JavaScript.